Location: Helsinki
(60.1699°N, 24.9384°E)
Time: 16:03:34
(UTC+02:00)

Tiros 1 - Pass Details

Date: 06 October 2022
Orbit: 629 x 662 km, 48.4° (Epoch: 07 December)

Event Time Altitude Azimuth Distance (km) Brightness Sun altitude
Rises 00:46:29 0° 219° (SW) 2,989 - -34.7°
Reaches altitude 10° 00:49:37 10° 198° (SSW) 2,077 - -34.7°
Maximum altitude 00:52:29 16° 161° (SSE) 1,712 - -34.7°
Drops below altitude 10° 00:55:21 10° 124° (SE) 2,074 - -34.8°
Sets 00:58:29 0° 103° (ESE) 2,982 - -34.8°
